(296936) = 2010 DV11

Discovered at Mount Lemmon on 2010-02-16 by Mt. Lemmon Survey.

Orbit

Orbit type: Main Belt

Note: WebGL enabled browser required.

epoch2024-03-31.0
epoch JD2460400.5
perihelion date2021-04-16.83360
perihelion JD2459321.33361
argument of perihelion (°)69.25924
ascending node (°)184.17048
inclination (°)6.60803
eccentricity0.0778554
perihelion distance (AU)2.1157839
Tisserand w.r.t. Jupiter3.6
ΔV w.r.t. Earth (km/sec)9.2
semimajor axis (AU)2.2944168
mean anomaly (°)306.04411
mean daily motion (°/day)0.28359310
aphelion distance (AU)2.473
period (years)3.48
P-vector [x]-0.28564318
P-vector [y]-0.91650273
P-vector [z]-0.28005487
Q-vector [x]0.95829950
Q-vector [y]-0.27571581
Q-vector [z]-0.07511893
absolute magnitude17.12
phase slope0.15
uncertainty0
referenceE2024-G95
observations used377
oppositions13
arc length (days)7702
first opposition used2003
last opposition used2024
residual rms (arc-secs)0.69
perturbers coarse indicatorM-v
perturbers precise indicator003Ek
first observation date used2003-03-07.0
last observation date used2024-04-07.0
computer nameMPCLINUX
JD of orbit computation2455872.627943
perihelion JD uncertainty (days)7.3868E-04
argument of perihelion uncertainty (°)2.2126E-04
ascending node uncertainty (°)6.1331E-05
inclination uncertainty (°)2.3291E-05
eccentricity uncertainty 6.0143E-08
perihelion distance uncertainty (AU)1.3010E-07
Minimum Orbit Intersection Distances (in AU)
for orbit epoch: 2460400.5, reference: E2024-G95
Mercury1.65691
Venus1.39576
Earth1.11248
Mars0.55951
Jupiter2.53921
Saturn6.58912
Uranus16.1444
Neptune27.3844

Observations

373 total observations over interval: 2003 03 07.29347 – 2024 01 15.514514
These data are available for download (format description).

Date (UT) J2000 RA J2000 Dec Magn Location Ref
2003 03 07.29347 11 23 49.70 +00 32 47.7 19.1 R 699 – Lowell Observatory-LONEOS MPS 327522
2003 03 07.30945 11 23 48.72 +00 32 56.9   699 – Lowell Observatory-LONEOS MPS 327522
2003 03 07.32540 11 23 47.82 +00 33 06.9   699 – Lowell Observatory-LONEOS MPS 327522
2003 03 07.34136 11 23 46.97 +00 33 13.0   699 – Lowell Observatory-LONEOS MPS 327522
2003 03 31.28381 11 04 01.43 +04 13 05.1 19.8 R 695 – Kitt Peak MPS 327522
2003 03 31.41019 11 03 56.21 +04 14 07.6   695 – Kitt Peak MPS 327522
2004 08 10.00869 23 04 29.94 +00 11 30.1 20.0 R 599 – Campo Imperatore-CINEOS MPS 327522
2004 08 10.02193 23 04 29.41 +00 11 25.4 19.9 R 599 – Campo Imperatore-CINEOS MPS 327522
2004 08 10.03520 23 04 29.00 +00 11 21.8 19.9 R 599 – Campo Imperatore-CINEOS MPS 327522
2004 08 10.04844 23 04 28.50 +00 11 16.3 20.3 R 599 – Campo Imperatore-CINEOS MPS 327522
2004 10 04.18208 22 25 13.59 -07 02 59.6 19.5   644 – Palomar Mountain/NEAT MPS 327522
2004 10 04.20265 22 25 13.13 -07 03 06.7 19.5   644 – Palomar Mountain/NEAT MPS 327522
2004 10 04.22377 22 25 12.70 -07 03 14.8 19.8   644 – Palomar Mountain/NEAT MPS 327522
2008 10 06.43029 03 46 31.15 +13 48 38.4 20.6 V G96 – Mt. Lemmon Survey MPS 327522
2008 10 06.44406 03 46 30.90 +13 48 34.4 20.6 V G96 – Mt. Lemmon Survey MPS 327522
2008 10 06.45781 03 46 30.61 +13 48 30.0 20.7 V G96 – Mt. Lemmon Survey MPS 327522
2008 10 06.47163 03 46 30.32 +13 48 25.9 20.6 V G96 – Mt. Lemmon Survey MPS 327522
2010 02 16.44648 12 09 52.16 -04 11 24.9 20.3 V G96 – Mt. Lemmon Survey MPS 313934
2010 02 16.45308 12 09 51.98 -04 11 23.1 20.2 V G96 – Mt. Lemmon Survey MPS 313934
2010 02 16.45971 12 09 51.87 -04 11 21.4 20.1 V G96 – Mt. Lemmon Survey MPS 313934
2010 02 17.47091 12 09 29.95 -04 06 33.7 20.2 V G96 – Mt. Lemmon Survey MPS 313934
2010 02 17.47478 12 09 29.88 -04 06 32.5 20.5 V G96 – Mt. Lemmon Survey MPS 313934
2010 02 17.47872 12 09 29.77 -04 06 30.9 19.8 V G96 – Mt. Lemmon Survey MPS 313934
2010 02 17.48260 12 09 29.70 -04 06 30.2 20.3 V G96 – Mt. Lemmon Survey MPS 313934
2010 02 19.43884 12 08 42.59 -03 56 31.1   691 – Steward Observatory, Kitt Peak-Spacewatch MPS 313934
2010 02 19.45647 12 08 42.10 -03 56 25.8   691 – Steward Observatory, Kitt Peak-Spacewatch MPS 313934
2010 02 19.47409 12 08 41.62 -03 56 19.9   691 – Steward Observatory, Kitt Peak-Spacewatch MPS 313934
2010 03 12.33179 11 54 46.54 -01 19 40.0 19.3 V 703 – Catalina Sky Survey MPS 318071
2010 03 12.33937 11 54 46.08 -01 19 38.1 19.5 V 703 – Catalina Sky Survey MPS 318071
2010 03 12.34705 11 54 45.72 -01 19 32.8 19.2 V 703 – Catalina Sky Survey MPS 318071
2010 03 12.35477 11 54 45.25 -01 19 29.8 18.7 V 703 – Catalina Sky Survey MPS 318071
2010 03 14.22054 11 53 10.20 -01 02 04.9 19.3 R G92 – Jarnac Observatory, Vail MPS 318071
2010 03 14.23262 11 53 09.58 -01 01 58.5 19.7 R G92 – Jarnac Observatory, Vail MPS 318071
2010 03 14.24470 11 53 08.87 -01 01 52.2 19.4 R G92 – Jarnac Observatory, Vail MPS 318071
2010 03 15.22340 11 52 18.21 -00 52 36.5 19.0 R G92 – Jarnac Observatory, Vail MPS 318071
2010 03 15.23614 11 52 17.56 -00 52 30.7 18.7 R G92 – Jarnac Observatory, Vail MPS 318071
2010 03 15.24887 11 52 16.85 -00 52 21.8 18.8 R G92 – Jarnac Observatory, Vail MPS 318071
2010 03 15.31892 11 52 13.04 -00 51 43.2 19.4 V G96 – Mt. Lemmon Survey MPS 318071
2010 03 15.32714 11 52 12.61 -00 51 38.3 19.7 V G96 – Mt. Lemmon Survey MPS 318071
2010 03 15.33535 11 52 12.14 -00 51 33.6 19.6 V G96 – Mt. Lemmon Survey MPS 318072
2010 03 15.34351 11 52 11.71 -00 51 29.0 19.5 V G96 – Mt. Lemmon Survey MPS 318072
2010 03 17.24258 11 50 32.69 -00 33 20.2 18.3 R G92 – Jarnac Observatory, Vail MPS 318072
2010 03 17.25715 11 50 31.91 -00 33 12.0 19.0 R G92 – Jarnac Observatory, Vail MPS 318072
2010 03 17.27173 11 50 31.05 -00 33 04.4 18.9 R G92 – Jarnac Observatory, Vail MPS 318072
2010 04 05.29186 11 34 54.44 +02 25 13.1 19.7 V G96 – Mt. Lemmon Survey MPS 320753
2010 04 05.29780 11 34 54.19 +02 25 16.1 19.7 V G96 – Mt. Lemmon Survey MPS 320753
2010 04 05.30376 11 34 53.94 +02 25 19.2 19.5 V G96 – Mt. Lemmon Survey MPS 320753
2010 04 05.30977 11 34 53.65 +02 25 21.9 19.6 V G96 – Mt. Lemmon Survey MPS 320753
2010 04 10.23046 11 31 44.90 +03 05 13.9 20.2 V 703 – Catalina Sky Survey MPS 322341
2010 04 10.23615 11 31 44.65 +03 05 16.5 20.6 V 703 – Catalina Sky Survey MPS 322341
2010 04 10.23993 11 31 44.61 +03 05 19.7 20.2 V G96 – Mt. Lemmon Survey MPS 322341
2010 04 10.24184 11 31 44.43 +03 05 20.5 20.1 V 703 – Catalina Sky Survey MPS 322341
2010 04 10.24757 11 31 44.29 +03 05 22.5 21.2 V 703 – Catalina Sky Survey MPS 322341
2010 04 10.24869 11 31 44.29 +03 05 23.8 20.1 V G96 – Mt. Lemmon Survey MPS 322341
2010 04 10.25750 11 31 43.93 +03 05 27.7 19.9 V G96 – Mt. Lemmon Survey MPS 322341
2010 04 10.26628 11 31 43.64 +03 05 31.9 20.2 V G96 – Mt. Lemmon Survey MPS 322341
2010 04 17.22863 11 28 18.30 +03 54 02.2 20.4 V G96 – Mt. Lemmon Survey MPS 323548
2010 04 17.23453 11 28 18.12 +03 54 04.4 20.4 V G96 – Mt. Lemmon Survey MPS 323548
2010 04 17.24045 11 28 17.97 +03 54 06.5 20.2 V G96 – Mt. Lemmon Survey MPS 323548
2011 08 20.48723 23 30 46.650 +01 28 38.11 20.3 r F51 – Pan-STARRS 1, Haleakala MPS 388676
2011 08 20.49764 23 30 46.228 +01 28 34.05 20.0 r F51 – Pan-STARRS 1, Haleakala MPS 388676
2011 08 20.50990 23 30 45.728 +01 28 29.31 19.8 i F51 – Pan-STARRS 1, Haleakala MPS 388676
2011 08 20.52149 23 30 45.266 +01 28 24.88 19.8 i F51 – Pan-STARRS 1, Haleakala MPS 388676
2011 08 27.47980 23 25 54.624 +00 38 50.85 20.3 r F51 – Pan-STARRS 1, Haleakala MPS 389198
2011 08 27.48128 23 25 54.544 +00 38 50.07 20.2 r F51 – Pan-STARRS 1, Haleakala MPS 389198
2011 08 27.48275 23 25 54.481 +00 38 49.50 20.2 r F51 – Pan-STARRS 1, Haleakala MPS 389198
2011 08 27.48423 23 25 54.408 +00 38 48.79 20.2 r F51 – Pan-STARRS 1, Haleakala MPS 389198
2011 08 27.48571 23 25 54.331 +00 38 48.08 20.2 r F51 – Pan-STARRS 1, Haleakala MPS 389198
2011 08 27.48866 23 25 54.186 +00 38 46.63 20.0 r F51 – Pan-STARRS 1, Haleakala MPS 389198
2011 08 27.49013 23 25 54.128 +00 38 46.03 20.1 r F51 – Pan-STARRS 1, Haleakala MPS 389198
2011 08 31.47971 23 22 45.376 +00 06 36.02 20.7 g F51 – Pan-STARRS 1, Haleakala MPS 390631
2011 08 31.49090 23 22 44.793 +00 06 30.15 20.7 g F51 – Pan-STARRS 1, Haleakala MPS 390631
2011 09 02.42568 23 21 09.221 -00 09 53.17 20.3 w F51 – Pan-STARRS 1, Haleakala MPS 390631
2011 09 02.43997 23 21 08.468 -00 10 00.55 20.2 w F51 – Pan-STARRS 1, Haleakala MPS 390631
2011 09 02.45429 23 21 07.715 -00 10 08.03 20.1 w F51 – Pan-STARRS 1, Haleakala MPS 390631
2011 09 04.18371 23 19 40.58 -00 25 12.7 19.6 V 691 – Steward Observatory, Kitt Peak-Spacewatch MPS 390631
2011 09 04.20145 23 19 39.70 -00 25 19.0 20.0 V 691 – Steward Observatory, Kitt Peak-Spacewatch MPS 390631
2011 09 04.21917 23 19 38.78 -00 25 27.9 19.9 V 691 – Steward Observatory, Kitt Peak-Spacewatch MPS 390631
2011 09 04.54755 23 19 21.585 -00 28 20.49 20.1 i F51 – Pan-STARRS 1, Haleakala MPS 392555
2011 09 04.55901 23 19 20.969 -00 28 26.62 20.0 i F51 – Pan-STARRS 1, Haleakala MPS 392555
2011 09 07.41581 23 16 53.89 -00 53 57.3 20.1 V 291 – LPL/Spacewatch II MPS 390631
2011 09 07.42267 23 16 53.52 -00 54 00.9 20.2 V 291 – LPL/Spacewatch II MPS 390631
2011 09 07.42959 23 16 53.15 -00 54 04.6 20.2 V 291 – LPL/Spacewatch II MPS 390631
2011 09 18.29517 23 07 35.14 -02 33 49.6 20.9 V 703 – Catalina Sky Survey MPS 392555
2011 09 18.30250 23 07 34.64 -02 33 53.6 20.1 V 703 – Catalina Sky Survey MPS 392555
2011 09 18.30985 23 07 34.35 -02 33 58.5 20.9 V 703 – Catalina Sky Survey MPS 392555
2011 09 18.31720 23 07 33.88 -02 34 00.6 19.7 V 703 – Catalina Sky Survey MPS 392555
2011 09 20.33779 23 05 55.432 -02 52 20.40 20.4 w F51 – Pan-STARRS 1, Haleakala MPS 392555
2011 09 20.36809 23 05 53.898 -02 52 36.82 20.2 w F51 – Pan-STARRS 1, Haleakala MPS 392555
2011 09 20.38331 23 05 53.127 -02 52 45.09 20.1 w F51 – Pan-STARRS 1, Haleakala MPS 392555
2011 09 23.19174 23 03 41.27 -03 17 46.8 20.2 V 291 – LPL/Spacewatch II MPS 392555
2011 09 23.19793 23 03 40.97 -03 17 50.0 20.2 V 291 – LPL/Spacewatch II MPS 392555
2011 09 23.20158 23 03 40.79 -03 17 52.0 20.3 V 291 – LPL/Spacewatch II MPS 392555
